When you browse on this site, cookies collect data to enhance your experience and personalize the content and advertising you see.
Visit our Privacy Policy to learn more. By continuing to use the site, you agree to this use of cookies and data.
  • In Hungary
  • List of Countries
  • For 7 days
  • Water Temperature
  • Weather Map
  • News
  • Weather Widgets
  • user-avatar
    Login

    Hourly Weather Wykierz

    Today, 23 September, Monday

    Time Temperature Precipitation Wind Pressure Humidity
    00:00 +13°C° 0 mm 1 mps 738 mmHg 62%
    01:00 +13°C° 0 mm 1 mps 738 mmHg 63%
    02:00 +13°C° 0 mm 2 mps 738 mmHg 67%
    03:00 +13°C° 0 mm 2 mps 738 mmHg 71%
    04:00 +12°C° 0 mm 2 mps 737 mmHg 75%
    05:00 +13°C° 0 mm 2 mps 738 mmHg 74%
    06:00 +13°C° 0 mm 2 mps 738 mmHg 73%
    07:00 +14°C° 0 mm 2 mps 738 mmHg 71%
    08:00 +16°C° 0 mm 2 mps 738 mmHg 65%
    09:00 +17°C° 0 mm 3 mps 738 mmHg 58%
    10:00 +19°C° 0 mm 3 mps 738 mmHg 51%
    11:00 +20°C° 0 mm 3 mps 738 mmHg 48%
    12:00 +21°C° 0 mm 3 mps 738 mmHg 46%
    13:00 +22°C° 0 mm 3 mps 738 mmHg 43%
    14:00 +21°C° 0 mm 2 mps 738 mmHg 45%
    15:00 +21°C° 0 mm 2 mps 738 mmHg 46%
    16:00 +21°C° 0 mm 2 mps 738 mmHg 47%
    17:00 +19°C° 0 mm 2 mps 738 mmHg 53%
    18:00 +17°C° 0 mm 2 mps 738 mmHg 59%
    19:00 +16°C° 0 mm 2 mps 738 mmHg 65%
    20:00 +15°C° 0 mm 2 mps 738 mmHg 67%
    21:00 +15°C° 0 mm 2 mps 738 mmHg 69%
    22:00 +14°C° 0 mm 2 mps 739 mmHg 71%
    23:00 +14°C° 0 mm 2 mps 739 mmHg 75%

    Tomorrow, 24 September, Tuesday

    Time Temperature Precipitation Wind Pressure Humidity
    00:00 +13°C° 0 mm 2 mps 739 mmHg 79%
    01:00 +13°C° 0 mm 2 mps 738 mmHg 82%
    02:00 +12°C° 0 mm 2 mps 738 mmHg 84%
    03:00 +12°C° 0 mm 2 mps 738 mmHg 86%
    04:00 +12°C° 0 mm 2 mps 738 mmHg 88%
    05:00 +12°C° 0 mm 1 mps 738 mmHg 86%
    06:00 +13°C° 0 mm 1 mps 738 mmHg 84%
    07:00 +13°C° 0 mm 1 mps 738 mmHg 82%
    08:00 +15°C° 0 mm 1 mps 738 mmHg 75%
    09:00 +18°C° 0 mm 1 mps 738 mmHg 67%
    10:00 +20°C° 0 mm 1 mps 738 mmHg 59%
    11:00 +20°C° 0 mm 2 mps 738 mmHg 54%
    12:00 +21°C° 0 mm 2 mps 738 mmHg 50%
    13:00 +23°C° 0 mm 2 mps 737 mmHg 45%
    14:00 +23°C° 0 mm 2 mps 737 mmHg 45%
    15:00 +23°C° 0 mm 2 mps 737 mmHg 45%
    16:00 +21°C° 0 mm 2 mps 736 mmHg 45%
    17:00 +20°C° 0 mm 3 mps 736 mmHg 51%
    18:00 +18°C° 0 mm 3 mps 736 mmHg 56%
    19:00 +16°C° 0 mm 3 mps 736 mmHg 62%
    20:00 +16°C° 0 mm 3 mps 736 mmHg 63%
    21:00 +16°C° 0 mm 3 mps 736 mmHg 64%
    22:00 +14°C° 0 mm 3 mps 736 mmHg 65%
    23:00 +15°C° 0 mm 2 mps 736 mmHg 67%

    Day after tomorrow, 25 September, Wednesday

    Time Temperature Precipitation Wind Pressure Humidity
    00:00 +15°C° 0 mm 2 mps 735 mmHg 70%
    01:00 +15°C° 0 mm 2 mps 735 mmHg 72%
    02:00 +15°C° 0.1 mm 2 mps 735 mmHg 74%
    03:00 +15°C° 0.1 mm 2 mps 734 mmHg 77%
    04:00 +15°C° 0.1 mm 2 mps 734 mmHg 79%
    05:00 +15°C° 0.2 mm 2 mps 734 mmHg 80%
    06:00 +15°C° 0.2 mm 2 mps 734 mmHg 81%
    07:00 +14°C° 0.2 mm 3 mps 734 mmHg 82%
    08:00 +17°C° 0.3 mm 3 mps 734 mmHg 76%
    09:00 +18°C° 0.3 mm 4 mps 734 mmHg 70%
    10:00 +19°C° 0.3 mm 5 mps 734 mmHg 64%
    11:00 +20°C° 0.1 mm 5 mps 734 mmHg 62%
    12:00 +20°C° 0.1 mm 5 mps 733 mmHg 59%
    13:00 +21°C° 0.1 mm 5 mps 733 mmHg 57%
    14:00 +20°C° 0.4 mm 5 mps 733 mmHg 60%
    15:00 +19°C° 0.4 mm 5 mps 733 mmHg 64%
    16:00 +18°C° 0.4 mm 4 mps 733 mmHg 68%
    17:00 +18°C° 0.4 mm 4 mps 733 mmHg 72%
    18:00 +17°C° 0.4 mm 4 mps 733 mmHg 76%
    19:00 +16°C° 0.4 mm 3 mps 733 mmHg 80%
    20:00 +16°C° 0 mm 3 mps 734 mmHg 80%
    21:00 +14°C° 0 mm 3 mps 734 mmHg 81%
    22:00 +14°C° 0 mm 3 mps 734 mmHg 82%
    23:00 +13°C° 0 mm 3 mps 734 mmHg 82%

    26 September, Thursday

    Time Temperature Precipitation Wind Pressure Humidity
    00:00 +13°C° 0 mm 3 mps 735 mmHg 82%
    01:00 +13°C° 0 mm 3 mps 735 mmHg 82%
    02:00 +13°C° 0 mm 3 mps 735 mmHg 84%
    03:00 +12°C° 0 mm 3 mps 735 mmHg 85%
    04:00 +13°C° 0 mm 2 mps 735 mmHg 87%
    05:00 +13°C° 0 mm 2 mps 736 mmHg 85%
    06:00 +13°C° 0 mm 2 mps 736 mmHg 84%
    07:00 +13°C° 0 mm 2 mps 736 mmHg 83%
    08:00 +14°C° 0 mm 2 mps 736 mmHg 79%
    09:00 +15°C° 0 mm 2 mps 737 mmHg 74%
    10:00 +16°C° 0 mm 2 mps 737 mmHg 70%
    11:00 +17°C° 0.2 mm 2 mps 737 mmHg 66%
    12:00 +18°C° 0.2 mm 2 mps 737 mmHg 62%
    13:00 +19°C° 0.2 mm 2 mps 737 mmHg 58%
    14:00 +18°C° 0.2 mm 3 mps 737 mmHg 60%
    15:00 +18°C° 0.2 mm 3 mps 737 mmHg 63%
    16:00 +18°C° 0.2 mm 3 mps 737 mmHg 65%
    17:00 +17°C° 0 mm 2 mps 738 mmHg 71%
    18:00 +15°C° 0 mm 2 mps 738 mmHg 77%
    19:00 +14°C° 0 mm 2 mps 738 mmHg 83%
    20:00 +14°C° 0 mm 2 mps 738 mmHg 85%
    21:00 +13°C° 0 mm 1 mps 739 mmHg 88%
    22:00 +13°C° 0 mm 1 mps 739 mmHg 90%
    23:00 +13°C° 0 mm 1 mps 739 mmHg 90%

    27 September, Friday

    Time Temperature Precipitation Wind Pressure Humidity
    00:00 +13°C° 0 mm 1 mps 739 mmHg 90%
    01:00 +12°C° 0 mm 2 mps 739 mmHg 90%
    02:00 +12°C° 0 mm 2 mps 739 mmHg 91%
    03:00 +12°C° 0 mm 2 mps 739 mmHg 91%
    04:00 +12°C° 0 mm 2 mps 739 mmHg 91%
    05:00 +12°C° 0 mm 2 mps 739 mmHg 89%
    06:00 +13°C° 0 mm 2 mps 739 mmHg 87%
    07:00 +13°C° 0 mm 2 mps 739 mmHg 86%
    08:00 +14°C° 0 mm 3 mps 739 mmHg 79%
    09:00 +17°C° 0 mm 3 mps 739 mmHg 73%
    10:00 +19°C° 0 mm 3 mps 739 mmHg 66%
    11:00 +19°C° 0 mm 4 mps 739 mmHg 64%
    12:00 +20°C° 0 mm 4 mps 739 mmHg 61%
    13:00 +21°C° 0 mm 4 mps 739 mmHg 59%
    14:00 +21°C° 0 mm 4 mps 738 mmHg 61%
    15:00 +20°C° 0 mm 3 mps 738 mmHg 63%
    16:00 +20°C° 0 mm 3 mps 738 mmHg 65%
    17:00 +19°C° 0 mm 3 mps 738 mmHg 69%
    18:00 +18°C° 0 mm 2 mps 738 mmHg 73%
    19:00 +17°C° 0 mm 2 mps 738 mmHg 77%
    20:00 +17°C° 0 mm 2 mps 738 mmHg 77%
    21:00 +17°C° 0 mm 2 mps 738 mmHg 77%
    22:00 +16°C° 0 mm 2 mps 738 mmHg 77%
    23:00 +16°C° 0 mm 3 mps 738 mmHg 76%

    28 September, Saturday

    Time Temperature Precipitation Wind Pressure Humidity
    00:00 +16°C° 0 mm 3 mps 738 mmHg 75%
    01:00 +17°C° 0 mm 3 mps 738 mmHg 74%
    02:00 +16°C° 0.8 mm 3 mps 738 mmHg 80%
    03:00 +15°C° 0.8 mm 2 mps 738 mmHg 86%
    04:00 +15°C° 0.8 mm 2 mps 738 mmHg 92%
    05:00 +15°C° 0 mm 2 mps 737 mmHg 90%
    06:00 +14°C° 0 mm 3 mps 737 mmHg 88%
    07:00 +16°C° 0 mm 3 mps 737 mmHg 85%
    08:00 +17°C° 0 mm 3 mps 737 mmHg 80%
    09:00 +17°C° 0 mm 4 mps 738 mmHg 75%
    10:00 +18°C° 0 mm 4 mps 738 mmHg 70%
    11:00 +19°C° 0 mm 4 mps 738 mmHg 66%
    12:00 +20°C° 0 mm 4 mps 737 mmHg 62%
    13:00 +21°C° 0 mm 5 mps 737 mmHg 58%
    14:00 +20°C° 0 mm 5 mps 737 mmHg 59%
    15:00 +20°C° 0 mm 5 mps 737 mmHg 60%
    16:00 +19°C° 0 mm 5 mps 737 mmHg 61%
    17:00 +17°C° 0.1 mm 5 mps 737 mmHg 67%
    18:00 +16°C° 0.1 mm 5 mps 737 mmHg 72%
    19:00 +15°C° 0.1 mm 5 mps 737 mmHg 78%
    20:00 +15°C° 0.3 mm 5 mps 737 mmHg 80%
    21:00 +14°C° 0.3 mm 4 mps 737 mmHg 83%
    22:00 +14°C° 0.3 mm 4 mps 737 mmHg 85%
    23:00 +14°C° 0 mm 4 mps 737 mmHg 86%
    Show more